Flag for U.S.A. Weather past 2 weeks in Wailuku, Hawaii, U.S.A.

Now
88 °F

Scattered clouds.


Feels Like: 94 °F
Forecast: 74 / 85 °F
Wind: 16 mph from Northeast

Location: Kahului Airport

Current Time: Oct 21, 2014 at 4:03:38 PM

Latest Report: Oct 21, 2014 at 2:54 PM


Visibility: 10 mi

Pressure: 29.93 "Hg

Humidity: 57%

Dew point: 71 °F

Location of WailukuLocation

Historic Weather in Wailuku — Graph

°F

Wailuku temperature yesterday

Maximum temperature yesterday: 89 °F (at 12:54 PM)
Minimum temperature yesterday: 70 °F (at 5:54 AM)
Average temperature yesterday: 80 °F

Past Weeks' High & Low Weather Summary

 TemperatureHumidityPressure
High90 °F (Oct 7, 12:54 PM)94% (Oct 19, 1:24 AM)30.06 "Hg (Oct 19, 1:24 AM)
Low69 °F (Oct 14, 3:54 AM)45% (Oct 9, 9:54 AM)29.85 "Hg (Oct 17, 2:54 PM)
Average80 °F71%29.98 "Hg
* Reported Oct 6 2:54 PM — Oct 21 2:54 PM, Wailuku, Weather by CustomWeather, © 2014

Note: Actual official high and low records may vary slightly from our data, if they occured in-between our weather recording intervals... More about our weather records

Advertising

Wailuku weather history for previous 24 hours

 ConditionsComfort  
Time TempWeatherWind HumidityBarometerVisibility
2:54 PM
Oct 21
88 °FScattered clouds.16 mph57%29.93 "Hg10 mi
1:54 PM90 °FPartly sunny.15 mph56%29.94 "Hg10 mi
12:54 PM89 °FScattered clouds.17 mph53%29.96 "Hg10 mi
11:54 AM90 °FPassing clouds.16 mph54%30.00 "Hg10 mi
10:54 AM84 °FPassing clouds.8 mph57%30.01 "Hg10 mi
9:54 AM85 °FPassing clouds.10 mph59%30.03 "Hg10 mi
8:54 AM81 °FPassing clouds.3 mph65%30.02 "Hg10 mi
7:54 AM76 °FScattered clouds.No wind77%30.02 "Hg10 mi
6:54 AM70 °FScattered clouds.3 mph87%30.01 "Hg10 mi
5:54 AM70 °FPassing clouds.6 mph87%29.99 "Hg10 mi
4:54 AM70 °FClear.6 mph87%29.98 "Hg10 mi
4:16 AM70 °FLow clouds.3 mph88%29.97 "Hg10 mi
3:54 AM70 °FPassing clouds.6 mph87%29.98 "Hg10 mi
3:46 AM70 °FPassing clouds.6 mph88%29.97 "Hg10 mi
2:54 AM70 °FClear.8 mph93%29.98 "Hg10 mi
1:54 AM71 °FClear.No wind90%30.00 "Hg10 mi
12:54 AM72 °FClear.5 mph87%30.02 "Hg10 mi
11:54 PM
Oct 20
73 °FClear.5 mph88%30.03 "Hg10 mi
10:54 PM74 °FPassing clouds.5 mph85%30.03 "Hg10 mi
9:54 PM76 °FPassing clouds.3 mph74%30.03 "Hg10 mi
8:54 PM77 °FClear.8 mph74%30.01 "Hg10 mi
7:54 PM78 °FClear.13 mph76%30.00 "Hg10 mi
6:54 PM79 °FPassing clouds.15 mph72%29.98 "Hg10 mi
5:54 PM80 °FScattered clouds.20 mph67%29.95 "Hg10 mi
4:54 PM82 °FPassing clouds.20 mph65%29.95 "Hg10 mi
Weather by CustomWeather, © 2014

See weather overviewHow to use our weather pages